Find Starlink 3956

NORAD ID: 52560 Int'l Des: 2022-051 Owner: SPXS Country: US Constellation: starlink operational
LEOCIRCULAR

現在のビュー

3D地球を読み込み中...

About Starlink 3956

Starlink 3956 (NORAD 52560) is a starlink constellation satellite (v1.5) launched May 13, 2022 by SPXS of US. It operates in LEO, CIRCULAR orbit with a mass of 297.00 kg.

Starlink 3956について

説明を読み込み中...

次回通過

Passes for default location (London). Set your location on the main map for personalized predictions.

高度履歴

Loading altitude history...

軌道要素

1 52560U 22051AD 26190.53019421 .00001408 00000-0 10657-3 0 9996
2 52560 53.1607 291.9275 0001385 99.9072 260.2076 15.08834988229976
Epoch: Jul 9, 2026 • Age: 29 hours

現在のステータス

高度 540.2 km
遠地点 / 近地点 N/A
速度 7.59 km/s
衛星直下点 4.96°N, 101.11°E
打ち上げ日 May 13, 2022
運用期間 4.1 years
タイプ internet

技術仕様

分類 Payload
質量 297.00 kg
乾燥質量 275.00 kg
総質量 297.00 kg
長さ 0.20 m
直径 2.80 m
スパン 9.00 m
形状 Box + pan
製造者 SPXS
バスタイプ Starlink
フェーズステータス In Orbit
所有者/国 SPXS/US

Most Searched